User: anonymous   Login
Location: Unspecified
(0.0000°N, 0.0000°E)
Time: 09:11:00
(UTC+00:00)
Language:

JASON 2 - Orbit

View from above orbital plane
View from above orbital plane
View from above satellite
View from above satellite

Ground track
Ground track

The orbit data is extracted from the following two-line orbital elements,

1 33105U 08032A   18018.62995072 -.00000052 +00000-0 +42053-4 0  9999
2 33105 066.0419 029.1410 0008014 271.5655 206.9493 12.87627830448262
Epoch (UTC): 18 January 2018 15:07:07
Eccentricity: 0.0008014
inclination: 66.0419°
perigee height: 1305 km
apogee height: 1317 km
right ascension of ascending node: 29.1410°
argument of perigee: 271.5655°
revolutions per day: 12.87627830
mean anomaly at epoch: 206.9493°
orbit number at epoch: 44826

The dashed part of the orbit path shows where the satellite is in the earth's shadow,  

DLR